Retour au catalogue

DELTA 1 R/B

ActifLEO
NORAD 2436·ROCKET BODY·🇺🇸 United States

Lancé Oct 2, 1966 depuis Vandenberg Space Force Base

Loading…

Prochains Passages (prochaines 24 heures)

TLE

FraisSource: Space-Track

Époque: Sep 14, 2026, 19:30 UTC

1 02436U 66087B   26257.81273284 -.00000027  00000-0  85491-4 0  9990
2 02436 101.0519 205.5717 0064691 208.3330 151.4222 12.57681424751376

Suivez DELTA 1 R/B en temps réel avec AllMySat

Download on the App Store